DO3HUM-5 Weather Reports


Display with metric or nautical units.
time (UTC)temp
F
wind
direction
speed
MPH
gust
MPH
rain 1hr
in
rain 24hr
in
rain mn
in
humidity
%
barometer
mb
20260507012559 51 61 1.0 4.0 0.00 0.11 0.00 90 1015.6
20260507011556 51 68 1.0 4.0 0.00 0.11 0.00 90 1015.5
20260507010550 51 70 1.0 4.0 0.00 0.11 0.00 90 1015.4
20260507005545 51 85 2.0 7.0 0.00 0.11 0.00 88 1015.4
20260507004542 51 80 1.0 4.0 0.00 0.11 0.00 88 1015.5
20260507003535 51 79 1.0 2.0 0.00 0.11 0.00 89 1015.3
20260507002531 52 83 1.0 4.0 0.00 0.11 0.00 89 1015.2
20260507001524 52 65 1.0 2.0 0.00 0.11 0.00 90 1015.2
20260507000520 52 68 1.0 2.0 0.00 0.11 0.00 89 1015.2
20260506235612 52 79 0.0 2.0 0.00 0.11 0.00 89 1015.1
20260506234609 52 83 1.0 4.0 0.00 0.11 0.00 89 1015.1
20260506233606 52 72 1.0 4.0 0.00 0.11 0.00 89 1015.1
20260506232558 52 80 1.0 4.0 0.00 0.11 0.00 89 1014.9
20260506231555 52 98 2.0 6.0 0.00 0.11 0.00 88 1015.0
20260506230549 52 68 0.0 2.0 0.00 0.11 0.00 89 1015.1
20260506225546 52 86 1.0 2.0 0.00 0.11 0.00 90 1015.1
20260506224537 52 75 1.0 2.0 0.00 0.11 0.00 91 1014.9
20260506223533 52 77 1.0 2.0 0.00 0.11 0.00 92 1014.7
20260506222526 51 0.0 0.0 0.00 0.11 0.00 92 1014.7
20260506221522 51 0.0 0.0 0.00 0.11 0.00 92 1014.6
20260506220519 51 0.0 0.0 0.00 0.11 0.00 91 1014.4
20260506215612 52 122 0.0 2.0 0.00 0.11 0.11 91 1014.4
20260506214609 52 0.0 2.0 0.00 0.11 0.11 91 1014.5
20260506213559 52 70 1.0 2.0 0.00 0.11 0.11 91 1014.4
20260506212557 52 90 1.0 4.0 0.00 0.11 0.11 91 1014.2
20260506211548 52 0.0 0.0 0.00 0.11 0.11 91 1014.2
20260506210545 52 73 1.0 4.0 0.00 0.11 0.11 90 1014.1
20260506205543 53 88 1.0 4.0 0.00 0.11 0.11 90 1014.1
20260506204535 53 90 0.0 4.0 0.00 0.11 0.11 90 1014.2
20260506203532 53 113 0.0 2.0 0.00 0.11 0.11 90 1014.2
20260506202525 53 84 1.0 4.0 0.00 0.11 0.11 89 1014.2
20260506201520 54 0.0 0.0 0.00 0.11 0.11 90 1014.2
20260506200612 54 68 0.0 4.0 0.00 0.11 0.11 90 1014.3
20260506195609 54 338 0.0 2.0 0.00 0.11 0.11 89 1014.2
20260506194608 54 92 1.0 4.0 0.00 0.11 0.11 89 1014.0
20260506193558 54 80 1.0 4.0 0.00 0.11 0.11 89 1014.0
20260506192556 54 119 0.0 4.0 0.00 0.11 0.11 90 1013.9
20260506191547 55 45 0.0 2.0 0.00 0.11 0.11 90 1013.8
20260506190546 55 81 2.0 4.0 0.01 0.11 0.11 90 1013.4
20260506185537 55 47 1.0 4.0 0.01 0.11 0.11 90 1013.2
20260506184534 55 84 1.0 4.0 0.02 0.11 0.11 90 1012.9
20260506183532 55 82 2.0 4.0 0.05 0.11 0.11 89 1012.8
20260506182524 55 83 0.0 2.0 0.07 0.11 0.11 90 1012.7
20260506181521 55 146 0.0 2.0 0.11 0.11 0.11 90 1012.8
20260506180542 56 0.0 0.0 0.09 0.09 0.09 90 1012.8
20260506175534 56 68 0.0 2.0 0.09 0.09 0.09 90 1012.7
20260506174531 56 161 1.0 4.0 0.08 0.08 0.08 90 1012.5
20260506173523 57 351 1.0 2.0 0.06 0.06 0.06 88 1012.7
20260506172520 57 0 0.0 4.0 0.04 0.04 0.04 86 1012.8
20260506171614 58 294 0.0 2.0 0.00 0.00 0.00 85 1012.8
20260506170609 58 53 0.0 4.0 0.00 0.00 0.00 84 1012.8
20260506165606 58 113 0.0 2.0 0.00 0.00 0.00 84 1012.6
20260506164558 59 281 0.0 2.0 0.00 0.00 0.00 83 1012.4
20260506163555 59 356 2.0 4.0 0.00 0.00 0.00 81 1012.4
20260506162544 60 25 1.0 2.0 0.00 0.00 0.00 80 1012.4
20260506161536 61 341 1.0 2.0 0.00 0.00 0.00 78 1012.3
20260506160524 61 218 1.0 2.0 0.00 0.00 0.00 78 1012.1
20260506155520 61 309 1.0 4.0 0.00 0.00 0.00 76 1012.2
20260506154611 62 19 1.0 2.0 0.00 0.00 0.00 76 1012.1
20260506153610 63 106 1.0 6.0 0.00 0.00 0.00 75 1012.0
20260506152600 64 303 1.0 4.0 0.00 0.00 0.00 74 1012.1
20260506151557 64 344 2.0 4.0 0.00 0.00 0.00 74 1012.1
20260506150554 64 13 1.0 4.0 0.00 0.00 0.00 73 1012.0
20260506145546 63 310 1.0 4.0 0.00 0.00 0.00 74 1012.1
20260506144543 63 19 1.0 4.0 0.00 0.00 0.00 74 1012.2
20260506143056 65 209 1.0 4.0 0.00 0.00 0.00 73 1012.3
20260506142046 64 331 2.0 4.0 0.00 0.00 0.00 74 1012.3
20260506141043 64 0 1.0 2.0 0.00 0.00 0.00 71 1012.5